FENGYUN 1C DEB, 32152

Orbit data source: Space-Track

FENGYUN 1C DEB, 32152 is space debris in SSO originally from a launch on Mon, 10 May 1999 UTC launched from the Taiyaun Space Center, China (TSC). Fengyun 1C debris stems from the Chinese weather satellite Fengyun-1C, which was intentionally destroyed by a Chinese anti-satellite missile in 2007. This event dramatically increased the amount of space debris, with thousands of trackable fragments posing hazards to satellites and human spaceflight. The Fengyun 1C debris cloud has become a focal point in discussions about space sustainability and the need for international regulations to prevent the creation of new debris.

Loading next visibility...
Identifier
32152, 1999-025CSW
Orbit
SSO
Country
Flag of CNCN / PRC
Related business
Manufacturer
Unknown
Mission
Spacecraft
Bus & Motor
Unknown
Mass
Unknown
Launch date (UTC)
1999-05-10 (27 years ago)
Launch vehicle
Unknown
Launch site
Taiyaun Space Center, China (TSC)
Object type
Payload
Rocket body
Debris
Shape & HBR
Unknown shape, 0.1 m
Radar Cross Section
Small (<0.1 m²)

Expand to show TLE details & history
Last TLE update: 6 days ago

TLE from 6 days ago
0 FENGYUN 1C DEB
1 32152U 99025CSW 26249.23730542  .00003037  00000-0  63125-3 0  9990
2 32152  98.7798  70.1531 0053337 102.0856 258.6325 14.60005761665124
Epoch: 2026-09-06T05:41Z
TLE epoch observation values (Epoch: 2026-09-06T05:41:43.188Z)
Latitude
-0.00008°
Longitude
-0.61214°
Altitude
703.751 km
Speed
7.5 km/s
True Right ascension
04h 40m 36s
True Declination
0° 00' 00"
Sunlit
Object was in daylight at epoch
Visualization orbit readout
Latitude
Unknown
Longitude
Unknown
Altitude
Unknown
Speed
Unknown
Apparent Right ascension
Unknown
Apparent Declination
Unknown
Sunlit
N/A
Visualization observer readout
Local Sidereal Time
01:30:22
Azimuth
Unknown
Elevation
Unknown
Doppler factor
Unknown
Orbital elements
Apogee altitude
727.965 km
Perigee altitude
652.563 km
Semi-major axis
7,068.401 km
Eccentricity
0.00533
Inclination
98.7798°
RAAN
70.1531°
Arg. of periapsis
102.0856°
True anomaly
258.03409°
Mean anomaly
258.6325°
Eccentric anomaly
258.33322°
Mean motion
3.65226 °/min
Orbital period
98.57 mins
BSTAR
0.00063125
Loading maneuver chart data...
Computing Atmospheric mass density...

Documentation

Showing up to 5 results
|